Regional Weather Roundup
Issued by NWS

Home | Current Version | Previous Version | Graphics & Text | Print | Product List | Glossary On
Versions: 1 2 3 4 5 6 7 8 9 10 11 12 13 14 15 16 17 18 19 20 21 22 23 24 25 26 27 28 29 30 31 32 33 34 35 36 37 38 39 40 41 42 43 44 45 46 47 48 49 50
000
ASUS44 KMEG 241410
RWRTN
TENNESSEE HOURLY STATE WEATHER ROUNDUP
NATIONAL WEATHER SERVICE MEMPHIS TN
800 AM CST TUE JAN 24 2017

TNZ002-004-019-021-049-052-054-088>092-241500-
WEST TENNESSEE

CITY           SKY/WX    TMP DP  RH WIND       PRES   REMARKS
MEMPHIS INTL   PTCLDY    41  37  86 VRB7      29.91S
NWS MEMPHIS      N/A     36 N/A N/A MISG        N/A
JACKSON        CLEAR     32  31  96 CALM      29.94R
DYERSBURG      CLEAR     34  30  86 CALM      29.94R
UNION CITY       N/A    N/A N/A N/A CALM      29.93R VSB 3/4
PARIS          CLEAR     36  32  87 CALM      29.93R
HUNTINGDON     CLEAR     34  34 100 CALM      29.93R
$$

TNZ008-025-027-028-033-062-065-066-241500-
NORTH MIDDLE TENNESSEE

CITY           SKY/WX    TMP DP  RH WIND       PRES   REMARKS
NASHVILLE      CLOUDY    42  33  70 N7        29.95R
PORTLAND       CLOUDY    41  36  81 NW5       29.93S
CLARKSVILLE    CLOUDY    40  32  73 NE7       29.94S
SMYRNA         CLOUDY    41  34  76 N7        29.96R
GALLATIN       CLOUDY    41  34  75 CALM      29.97R
CROSSVILLE     CLOUDY    35  33  92 W7        29.89R WCI  29
$$

TNZ061-075-076-078-094-096-097-241500-
SOUTH MIDDLE TENNESSEE

CITY           SKY/WX    TMP DP  RH WIND       PRES   REMARKS
TULLAHOMA      CLOUDY    37  34  87 N7        29.92R WCI  32
WINCHESTER     CLOUDY    37  34  87 NW5       29.91R WCI  34
MCMINNVILLE    CLOUDY    39  36  87 CALM        N/A
COLUMBIA       CLOUDY    41  39  93 N5        29.91S
SHELBYVILLE    CLOUDY    41  36  81 NW7       29.94R
$$

TNZ017-018-042-046-047-241500-
NORTHEAST TENNESSEE

CITY           SKY/WX    TMP DP  RH WIND       PRES   REMARKS
TRI CITIES     CLOUDY    42  39  89 W15G21    29.81R FOG
ELIZABETHTON   CLOUDY    43  41  93 W9G15     29.80R FOG
$$

TNZ012-013-036-069-073-074-241500-
CENTRAL EAST TENNESSEE

CITY           SKY/WX    TMP DP  RH WIND       PRES   REMARKS
KNOXVILLE      CLOUDY    42  37  82 W7        29.88R
OAK RIDGE      CLOUDY    43  37  79 S3        29.92R
GATLINBURG     CLOUDY    41  37  87 W5        29.87S
MORRISTOWN     CLOUDY    41  39  93 W8        29.85R
JACKSBORO      CLOUDY    41  37  87 VRB3G13   29.91R
$$

TNZ083-085-099-241500-
SOUTHEAST TENNESSEE

CITY           SKY/WX    TMP DP  RH WIND       PRES   REMARKS
CHATTANOOGA    CLOUDY    43  34  70 N10       29.93R
$$

SKY/WX REPORTED AS FAIR MEANS FEW OR NO CLOUDS BELOW
12 THOUSAND FEET.





USA.gov is the U.S. government's official web portal to all federal, state and local government web resources and services.